Probability
0 0 0 0 0 0 0 0 0 0 0 0 0 0 0 0 0 0 0 1 1 1 0 0 0 0 0 0 0 0 0 1 4 6 7 6 4 3 2 2 1 0 1 2
0 0 0 0 0 0 0 0 0 0 0 0 0 0 0 0 0 0 0 0 1 1 1 1 0 0 0 0 0 0 0 1 3 6 7 6 4 2 1 1 0 0 1 2
0 0 0 0 0 0 0 0 0 0 0 0 0 0 0 0 0 0 0 0 0 1 2 2 1 0 0 0 0 0 0 0 1 4 6 6 4 2 0 0 0 0 0 1
0 0 0 0 0 0 0 0 0 0 0 0 0 0 0 0 0 0 0 0 0 0 1 2 1 0 0 0 0 0 0 0 1 3 5 6 6 3 1 1 1 0 0 0
0 0 0 0 0 0 0 0 0 0 0 0 0 0 0 0 0 0 0 0 0 0 1 2 1 0 0 0 0 1 1 1 1 2 4 5 6 5 3 2 2 1 1 1
0 0 0 0 0 0 0 0 0 0 0 0 0 0 0 0 0 0 0 0 0 0 1 2 2 1 1 0 0 1 2 1 1 2 2 3 5 5 4 3 3 3 2 2
0 0 0 0 0 0 0 0 0 0 0 0 0 0 0 0 0 0 0 0 0 0 1 2 3 3 2 1 0 1 2 3 3 2 1 1 2 4 3 3 3 3 3 3
0 0 0 0 0 0 0 0 0 0 0 0 0 0 0 0 0 0 0 0 0 0 1 2 3 3 3 2 1 1 2 4 4 3 1 0 1 2 1 1 3 3 3 3
0 0 0 0 0 0 0 0 0 0 0 0 0 0 0 0 0 0 0 0 0 0 1 2 3 3 3 3 2 2 3 4 4 3 1 0 0 0 0 1 2 3 3 3
0 0 0 0 0 0 0 0 0 0 0 0 0 0 0 0 0 0 0 0 0 0 0 1 2 3 3 3 3 3 3 4 5 3 1 0 0 0 0 0 1 1 2 2
0 0 0 0 0 0 0 0 0 0 0 0 0 0 0 0 0 0 0 0 0 0 0 0 1 2 3 3 3 3 3 4 4 3 1 0 0 0 0 0 0 0 1 1
0 0 0 0 0 0 0 0 0 0 0 0 0 0 0 0 0 0 0 0 0 0 0 0 0 1 2 3 3 3 3 3 4 3 1 0 0 0 0 0 0 0 0 0
0 0 0 0 0 0 0 0 0 0 0 0 0 0 0 0 0 0 0 0 0 0 0 0 0 0 1 2 3 3 3 3 3 2 1 0 0 0 0 0 0 0 0 0
0 0 0 0 0 0 0 0 0 0 0 0 0 0 0 0 0 0 0 0 0 0 0 0 0 0 0 1 2 3 3 3 3 1 0 0 0 0 0 0 0 0 0 0
0 0 0 0 0 0 0 0 0 0 0 0 0 0 0 0 0 0 0 0 0 0 0 0 0 0 0 0 1 1 2 3 2 1 0 0 0 0 0 0 0 0 0 0
0 0 0 0 0 0 0 0 0 0 0 0 0 0 0 0 0 0 0 0 0 0 0 0 0 0 0 0 0 0 1 2 2 1 0 0 0 0 0 0 0 0 0 0
0 0 0 0 0 0 0 0 0 0 0 0 0 0 0 0 0 0 0 0 0 0 0 0 0 0 0 0 0 0 0 1 1 0 0 0 0 0 0 0 0 0 0 0
0 0 0 0 0 0 0 0 0 0 0 0 0 0 0 0 0 0 0 0 0 0 0 0 0 0 0 0 0 0 0 0 0 0 0 0 0 0 0 0 0 0 0 0
0 0 0 0 0 0 0 0 0 0 0 0 0 0 0 0 0 0 0 0 0 0 0 0 0 0 0 0 0 0 0 0 0 0 0 0 0 0 0 0 0 0 0 0
0 0 0 0 0 0 0 0 0 0 0 0 0 0 0 0 0 0 0 0 0 0 0 0 0 0 0 0 0 0 0 0 0 0 0 0 0 0 0 0 0 0 0 0
0 0 0 0 0 0 0 0 0 0 0 0 0 0 0 0 0 0 0 0 0 0 0 0 0 0 0 0 0 0 0 0 0 0 0 0 0 0 0 0 0 0 0 0
0 0 0 0 0 0 0 0 0 0 0 0 0 0 0 0 0 0 0 0 0 0 0 0 0 0 0 0 0 0 0 0 0 0 0 0 0 0 0 0 0 0 0 0
0 0 0 0 0 0 0 0 0 0 0 0 0 0 0 0 0 0 0 0 0 0 0 0 0 0 0 0 0 0 0 0 0 0 0 0 0 0 0 0 0 0 0 0
0 0 0 0 0 0 0 0 0 0 0 0 0 0 0 0 0 0 0 0 0 0 0 0 0 0 0 0 0 0 0 0 0 0 0 0 0 0 0 0 0 0 0 0
0 0 0 0 0 0 0 0 0 0 0 0 0 0 0 0 0 0 0 0 0 0 0 0 0 0 0 0 0 0 0 0 0 0 0 0 0 0 0 0 0 0 0 0
0 0 0 0 0 0 0 0 0 0 0 0 0 0 0 0 0 0 0 0 0 0 0 0 0 0 0 0 0 0 0 0 0 0 0 0 0 0 0 0 0 0 0 0
Wind_Speed
1 3 5 6 6 4 4 7 8 6 3 7 11 14 12 9 9 9 8 8 7 7 5 4 4 4 4 4 4 4 4 4 4 3 3 2 2 2 2 2 2 2 2 2
3 5 4 3 4 4 5 7 8 5 3 7 10 14 12 9 9 9 8 8 7 6 5 4 5 5 5 5 4 4 4 4 4 3 3 2 2 2 2 2 2 2 2 3
6 1 2 4 5 6 7 8 7 6 6 5 8 10 9 6 7 6 6 7 6 6 5 5 5 5 5 5 5 4 5 4 4 4 3 2 2 2 2 2 2 2 3 3
3 1 2 4 5 5 7 4 6 6 6 4 4 8 7 6 6 6 5 5 5 4 4 4 5 5 5 5 5 5 5 4 4 4 4 5 4 4 3 3 2 2 3 3
3 2 3 5 4 4 3 2 4 5 6 6 5 7 7 4 6 6 5 5 4 4 4 4 4 5 5 5 4 5 5 5 4 5 6 6 5 4 3 3 3 3 2 3
1 1 2 2 2 3 2 1 2 2 4 7 7 8 8 4 6 6 5 4 4 4 4 4 3 3 3 4 4 4 5 5 5 5 6 6 6 5 4 4 4 3 3 3
2 2 1 1 1 2 3 3 2 4 5 6 4 8 9 4 4 5 6 5 4 4 4 4 4 4 4 5 5 5 5 5 5 5 6 6 6 6 6 5 5 4 4 3
4 4 3 2 3 4 5 5 4 5 5 4 5 9 6 2 3 4 4 4 3 3 4 4 5 4 4 5 5 5 6 5 5 6 6 6 6 5 4 5 5 5 4 4
4 3 1 1 2 3 4 5 2 2 3 6 7 7 7 3 3 3 3 3 4 4 4 5 5 4 4 5 6 6 6 6 5 5 6 6 5 5 5 5 5 4 4 4
2 3 2 1 1 1 2 3 3 4 5 7 7 8 6 4 4 3 3 4 5 5 5 5 5 4 4 5 5 6 6 6 5 5 5 4 5 5 5 5 5 5 5 5
2 3 2 3 5 5 4 4 4 4 4 6 7 5 1 3 2 3 4 4 5 6 6 5 5 4 4 4 5 5 6 5 5 4 4 4 4 4 4 4 5 5 5 5
2 2 3 4 1 3 4 5 6 5 5 6 7 6 1 1 3 4 5 6 6 6 5 5 5 4 4 4 4 5 5 5 4 4 4 4 4 4 4 4 5 5 5 5
3 3 2 2 3 2 4 4 5 3 3 6 8 7 1 3 4 5 6 7 6 6 5 4 4 3 3 3 3 3 4 4 3 3 4 4 4 4 4 4 4 4 4 4
1 3 6 7 4 3 5 6 7 7 7 9 12 13 9 9 9 8 8 8 7 6 6 5 4 3 3 3 3 3 3 3 3 3 3 4 4 4 4 4 4 4 4 4
2 4 5 7 6 4 6 8 10 12 12 11 12 13 15 12 11 10 9 8 8 7 6 5 4 4 3 3 3 3 3 3 3 3 3 3 3 3 3 3 3 3 4 4
2 3 3 6 6 6 9 12 13 14 14 16 16 17 13 11 9 9 9 8 8 7 6 5 4 4 4 3 3 3 3 2 3 3 3 2 3 3 2 2 3 3 3 3
3 4 3 5 2 4 10 10 11 10 10 11 14 13 10 10 9 9 8 8 8 8 6 5 5 4 4 3 3 3 2 2 2 2 2 2 3 2 2 2 2 3 3 3
4 4 3 2 2 9 5 1 6 9 10 11 12 11 9 9 10 8 7 7 8 7 6 5 4 4 3 3 3 2 1 2 2 2 2 2 2 2 2 2 2 2 2 2
5 5 3 3 5 9 7 3 4 6 9 7 11 11 10 8 8 6 5 5 6 6 5 4 3 3 2 2 2 1 1 1 2 2 3 3 2 2 2 2 2 1 1 2
2 3 4 4 6 7 4 1 1 3 7 3 6 8 8 5 6 6 5 5 5 4 3 2 2 2 2 2 1 1 1 2 2 2 2 2 2 2 2 2 2 1 1 1
3 3 6 8 8 8 4 0 3 4 5 4 6 7 6 6 7 6 6 5 4 3 2 2 2 2 2 2 1 1 2 2 2 2 2 2 2 2 2 2 2 2 1 1
6 6 6 6 7 9 2 4 6 6 7 7 7 7 7 8 7 7 6 5 4 3 2 2 1 2 2 1 1 2 2 2 2 1 1 2 2 2 2 2 2 2 2 1
7 6 5 7 7 3 3 5 6 6 8 8 8 7 7 8 7 7 6 5 4 4 3 2 1 2 2 2 2 2 2 1 1 1 1 2 2 1 2 2 2 2 2 2
5 3 4 6 9 8 8 8 8 8 9 9 9 8 7 8 7 7 6 5 4 4 3 2 2 2 2 2 2 2 2 2 2 2 2 2 2 2 2 2 2 2 2 2
5 5 5 8 9 9 7 7 9 9 9 9 9 8 7 7 7 6 6 5 4 4 3 3 3 3 3 2 2 2 2 2 2 2 1 2 2 2 2 2 2 2 2 3
6 7 7 8 6 6 8 8 8 8 9 9 8 8 6 6 6 5 5 5 4 4 3 3 3 3 3 3 2 2 2 2 2 2 1 2 2 2 2 2 1 1 2 2
Wind_Direction
158 196 213 216 224 258 243 244 255 263 268 261 258 266 270 267 257 256 253 248 250 254 253 230 208 203 198 195 189 187 188 188 184 185 187 188 194 197 200 204 208 212 213 208
182 224 232 221 210 222 237 249 261 273 266 270 271 270 267 257 250 250 252 252 254 260 252 225 204 200 201 197 194 193 194 195 195 200 201 206 199 209 211 212 212 216 221 217
218 230 186 194 202 222 237 245 258 274 294 251 279 266 240 240 246 250 254 256 257 255 247 225 214 209 207 205 203 200 201 203 203 200 190 173 180 198 205 209 213 220 222 219
233 225 198 214 228 230 246 250 258 263 269 261 263 278 243 238 248 249 253 255 258 255 243 225 214 212 210 212 210 208 203 203 204 201 199 192 201 207 220 222 220 220 224 222
215 215 218 233 248 232 260 265 250 261 257 265 238 257 265 236 255 256 252 256 263 255 243 227 220 218 217 214 212 214 207 205 205 206 207 206 210 210 209 214 219 220 220 223
229 253 253 261 295 229 195 210 212 222 236 250 234 240 266 231 251 267 261 259 261 255 242 236 230 223 217 213 210 212 208 208 209 209 212 213 215 212 206 212 217 220 221 222
227 205 167 183 171 181 213 217 233 225 224 243 200 235 254 260 257 260 261 262 265 255 242 240 232 228 225 213 207 207 208 209 211 213 215 216 216 215 214 217 218 220 221 225
225 227 194 215 232 220 218 228 229 245 252 259 218 238 249 259 272 270 268 264 272 270 261 253 243 237 231 222 213 207 210 213 212 215 217 219 219 219 219 221 222 224 226 227
230 239 109 269 293 217 197 218 259 259 288 264 241 252 266 248 253 261 268 265 268 277 272 263 256 249 239 227 221 216 212 213 216 219 218 219 219 219 222 223 225 225 227 227
240 251 249 261 213 201 259 186 181 206 244 257 255 250 248 231 248 263 279 278 284 285 275 267 262 255 247 234 223 218 217 215 218 220 220 223 222 223 222 221 222 222 223 221
253 223 237 219 218 219 184 189 211 212 253 260 264 257 246 252 274 279 292 303 304 298 288 273 265 256 250 241 227 220 218 215 215 219 221 225 226 225 222 220 223 221 219 216
199 215 241 248 292 304 235 216 199 218 231 237 263 268 70 261 309 307 311 317 313 311 300 285 274 260 247 238 231 224 221 219 218 217 222 225 225 219 220 222 224 219 215 216
167 187 228 226 192 195 230 228 223 229 235 228 241 255 110 322 320 316 312 316 319 317 311 302 287 268 253 244 240 237 231 227 224 222 225 223 219 217 221 223 220 215 212 211
193 211 234 249 273 205 232 234 221 211 231 240 243 263 282 297 304 310 313 317 315 314 310 305 301 292 279 260 250 244 241 233 226 223 228 229 224 223 226 225 219 211 207 208
191 233 247 268 274 249 242 243 230 226 238 250 264 266 280 297 301 302 305 309 309 308 306 298 295 290 285 276 260 252 246 240 230 224 228 234 233 231 229 221 206 206 210 215
197 231 245 266 254 252 263 256 244 243 246 252 265 273 282 292 298 297 297 300 299 298 297 294 290 285 279 277 278 272 255 244 236 229 232 235 234 222 220 209 191 202 213 212
195 193 217 256 281 273 258 244 234 234 233 241 253 263 289 295 295 294 295 292 289 292 289 286 285 283 284 279 275 263 274 252 244 241 235 234 230 221 211 196 190 200 205 206
191 197 218 246 214 241 254 210 233 238 246 240 253 272 284 289 298 293 287 286 286 287 285 280 283 287 293 291 284 283 283 263 250 251 240 229 222 226 208 195 199 196 195 204
207 197 206 217 243 267 276 246 220 234 260 249 253 270 287 308 304 288 293 283 277 278 280 276 277 281 288 285 283 283 289 279 257 254 249 236 215 211 206 201 202 202 194 204
195 209 214 215 241 254 275 339 286 231 262 251 248 271 291 306 293 303 332 315 298 293 290 283 284 279 281 287 277 264 273 276 264 261 258 246 225 208 207 207 203 210 210 206
174 200 220 231 244 261 282 167 165 227 280 309 278 276 277 267 272 300 310 312 303 296 295 295 289 281 283 282 263 256 269 277 280 273 261 242 224 211 206 196 195 191 194 184
192 196 206 212 233 251 182 162 217 269 304 296 290 284 279 276 283 287 293 297 294 288 284 281 281 293 297 280 242 247 269 291 289 259 239 227 223 211 189 175 180 189 188 184
216 216 218 214 234 288 203 238 273 296 290 290 289 287 280 278 278 281 285 286 281 275 271 269 253 278 295 288 258 250 272 283 271 246 229 224 216 208 192 182 182 192 196 197
227 224 234 252 260 272 272 276 284 286 285 290 289 283 275 271 271 275 277 279 279 275 265 254 241 248 272 286 281 263 264 253 238 237 234 221 209 195 192 197 192 197 204 205
229 196 227 253 273 287 274 277 285 289 291 292 291 285 274 264 262 263 269 271 271 271 263 248 241 245 258 268 267 266 253 230 232 236 234 225 215 201 201 202 202 214 225 225
220 216 226 250 263 265 283 299 299 294 294 295 294 296 287 263 258 264 268 268 264 262 254 245 244 246 253 254 257 258 244 224 219 229 232 226 220 215 204 189 190 202 236 248